Regional Weather Roundup
Issued by NWS

Home | Current Version | Previous Version | Graphics & Text | Print | Product List | Glossary On
Versions: 1 2 3 4 5 6 7 8 9 10 11 12 13 14 15 16 17 18 19 20 21 22 23 24 25 26 27 28 29 30 31 32 33 34 35 36 37 38 39 40 41 42 43 44 45 46 47 48 49 50
000
ASUS43 KLMK 202010
RWRKY
KENTUCKY REGIONAL WEATHER ROUNDUP
NATIONAL WEATHER SERVICE LOUISVILLE KY
400 PM EDT SUN MAY 20 2018

NOTE "FAIR" INDICATES FEW OR NO CLOUDS BELOW 12,000 FEET
WITH NO SIGNIFICANT WEATHER AND/OR OBSTRUCTIONS TO VISIBILITY.

KYZ001>023-026-027-061>063-070>075-202100-
WESTERN AND SOUTH CENTRAL KENTUCKY

CITY           SKY/WX    TMP DP  RH WIND       PRES   REMARKS
PADUCAH        FAIR      86  70  58 S3        30.05S HX  90
HENDERSON      NOT AVBL
OWENSBORO      FAIR      85  68  56 S5        30.07F
HOPKINSVILLE   FAIR      87  69  56 CALM      30.05F HX  91
BOWLING GREEN  FAIR      87  68  52 W6        30.08F HX  90
GLASGOW        FAIR      89  65  46 W3        30.09F HX  90
$$

KYZ024-025-028>034-038-045-046-053-202100-
NORTH CENTRAL KENTUCKY

CITY           SKY/WX    TMP DP  RH WIND       PRES   REMARKS
LOUISVILLE/SDF FAIR      89  64  43 W6        30.07F HX  90
LOUISVILLE/LOU FAIR      88  65  46 NW6       30.07F HX  90
FORT KNOX      FAIR      86  66  50 CALM      30.09F
$$

KYZ035>037-039>044-047>052-055>060-089>105-202100-
NORTHEAST KENTUCKY

CITY           SKY/WX    TMP DP  RH WIND       PRES   REMARKS
LEXINGTON      FAIR      86  66  51 NW3       30.11F
COVINGTON      FAIR      85  63  47 VRB7      30.09F
FRANKFORT      FAIR      86  62  44 VRB6      30.09F
$$

KYZ054-064>069-076>088-106>120-202100-
SOUTHEAST KENTUCKY

CITY           SKY/WX    TMP DP  RH WIND       PRES   REMARKS
JACKSON        FAIR      85  64  49 VRB3      30.13F
LONDON         FAIR      87  62  43 MISG      30.13F
SOMERSET       FAIR      86  61  42 MISG      30.12F
MIDDLESBORO    FAIR      86  62  45 N6        30.13F
MONTICELLO     FAIR      86  62  44 NW9       30.13F
$$





USA.gov is the U.S. government's official web portal to all federal, state and local government web resources and services.